Location: Newark
(41.8083°N, 72.2500°W)
Time: 20:11:04
(UTC+00:00)

Courier 1B - Pass Details

Date: 03 December 2021
Orbit: 962 x 1209 km, 28.3° (Epoch: 19 January)

Event Time Altitude Azimuth Distance (km) Brightness Sun altitude
Rises 23:34:56 0° 248° (WSW) 3,961 12.0 -24.8°
Reaches altitude 10° 23:38:14 10° 237° (WSW) 2,959 10.9 -25.4°
Maximum altitude 23:44:04 27° 183° (S) 1,926 9.1 -26.4°
Enters shadow 23:46:21 22° 154° (SSE) 2,089 9.0 -26.9°
Drops below altitude 10° 23:49:37 10° 129° (SE) 2,809 - -27.5°
Sets 23:52:39 0° 117° (ESE) 3,724 - -28.0°
